This is the latest recevied weather packets stored in our database for station/object IZ5RIE-13. If no packets are shown the sender has not sent any weather packets the latest 10 day(s).
| Time | Temp. | Humidity | Pressure | Rain* | Wind** | Luminosity | Snow |
|---|---|---|---|---|---|---|---|
| 1788614480 | 35° C | 85% | 1019.7 hPa | - | - | - | - |
| 1788613578 | 34.44° C | 88% | 1019.8 hPa | - | - | - | - |
| 1788612678 | 34.44° C | 92% | 1019.9 hPa | - | - | - | - |
| 1788611778 | 34.44° C | 89% | 1020.1 hPa | - | - | - | - |
| 1788610878 | 33.33° C | 100% | 1020.2 hPa | - | - | - | - |
| 1788609978 | 33.33° C | 91% | 1020.2 hPa | - | - | - | - |
| 1788609078 | 32.78° C | 100% | 1020.2 hPa | - | - | - | - |
| 1788608177 | 32.78° C | 100% | 1020.4 hPa | - | - | - | - |
| 1788607307 | 32.78° C | 100% | 1020.4 hPa | - | - | - | - |
| 1788607275 | 32.78° C | 100% | 1020.4 hPa | - | - | - | - |
| 1788606375 | 31.67° C | 100% | 1020.4 hPa | - | - | - | - |
| 1788605474 | 31.11° C | 100% | 1020.5 hPa | - | - | - | - |
| 1788604574 | 31.11° C | 100% | 1020.5 hPa | - | - | - | - |
| 1788603674 | 31.11° C | 100% | 1020.6 hPa | - | - | - | - |
| 1788602774 | 31.11° C | 100% | 1020.7 hPa | - | - | - | - |
| 1788601874 | 31.67° C | 100% | 1020.6 hPa | - | - | - | - |
| 1788600973 | 31.67° C | 100% | 1020.7 hPa | - | - | - | - |
| 1788600073 | 31.11° C | 100% | 1020.6 hPa | - | - | - | - |
| 1788599172 | 32.22° C | 100% | 1020.8 hPa | - | - | - | - |
| 1788598271 | 31.11° C | 100% | 1020.7 hPa | - | - | - | - |
| 1788597371 | 29.44° C | 100% | 1020.5 hPa | - | - | - | - |
| 1788596471 | 28.33° C | 100% | 1020.4 hPa | - | - | - | - |
| 1788595571 | 25.56° C | 100% | 1020.3 hPa | - | - | - | - |
| 1788595546 | 25.56° C | 100% | 1020.4 hPa | - | - | - | - |
| 1788594646 | 25° C | 100% | 1019 hPa | - | - | - | - |
* Rain since midnight (hover to see other rain measurements)
** Current wind speed in m/s (hover to see current wind gust speed)